GFSWCAN_850_temp_336.txt.gz
Temp
8 8 8 8 8 8 8 7 7 7 6 6 7 7 7 8 8 8 8 7 6 7 9 11 11 12 12 13 11 15 14 16 15 15 16 16 18 19 20 21 22 21 19 18 16 21 24 23 23 25 23 23 24 23
7 7 8 8 8 7 7 7 7 7 7 6 7 7 7 6 7 7 7 6 6 6 8 11 12 13 13 13 13 13 14 15 17 14 14 13 17 15 16 21 19 21 18 19 19 19 19 20 21 25 25 25 24 25
7 7 7 7 7 7 7 6 6 6 7 7 7 7 7 7 7 6 7 7 6 6 9 11 16 16 15 16 15 12 16 18 19 18 15 13 17 14 18 18 20 18 16 17 19 20 20 22 22 24 27 27 27 28
7 7 7 7 7 7 6 6 6 6 6 6 6 7 7 7 7 7 6 7 6 6 6 12 15 16 16 16 16 17 18 18 17 18 16 13 16 16 15 16 16 17 17 16 16 19 23 24 24 25 26 27 27 26
7 7 6 6 6 6 6 6 6 6 7 7 7 7 7 7 7 8 8 8 8 6 6 10 14 17 18 18 19 18 16 16 16 18 16 16 15 15 12 13 16 16 16 17 18 19 20 23 25 26 27 27 27 26
7 6 6 6 6 6 6 6 6 7 7 7 7 7 7 7 7 8 8 8 9 7 6 8 13 17 18 18 18 18 18 15 17 19 17 18 18 18 14 15 18 19 20 20 20 22 22 23 23 24 25 25 26 25
6 6 6 6 5 6 6 6 7 7 7 7 7 8 8 8 8 8 8 8 8 7 7 8 9 16 16 17 16 17 17 18 19 19 18 18 18 18 13 17 21 22 21 21 21 22 22 23 23 24 24 25 24 24
6 6 6 5 5 5 6 6 7 7 7 7 8 8 9 9 8 9 8 9 7 7 7 8 10 13 17 17 18 19 20 19 18 19 17 16 17 16 16 17 20 22 23 23 22 22 23 24 24 24 24 24 24 24
6 6 6 5 5 5 5 5 6 7 8 8 8 8 9 9 9 9 9 9 9 8 8 9 10 11 16 16 17 18 19 15 16 14 14 15 12 15 14 13 16 19 19 20 22 22 22 22 24 24 24 23 23 23
6 6 5 5 5 5 5 5 5 7 8 8 8 8 9 9 9 8 9 9 8 8 8 8 11 10 14 14 14 15 15 11 14 13 14 12 13 14 14 15 17 19 21 21 21 21 22 22 22 22 23 23 23 22
5 5 5 5 5 5 5 4 4 6 7 7 8 8 9 9 10 9 9 8 9 9 10 11 11 11 15 12 12 14 12 10 15 13 14 12 13 13 16 17 18 20 21 22 22 22 21 21 22 22 21 20 20 19
5 5 5 5 5 5 5 4 4 5 5 5 5 7 8 9 9 8 9 9 9 10 11 10 12 13 14 15 14 13 13 12 16 11 13 14 11 14 15 16 17 18 19 20 21 21 21 21 21 20 19 18 18 18
5 5 5 5 5 5 5 4 4 4 5 5 5 6 8 8 7 9 11 9 9 11 12 11 10 12 14 14 13 12 15 13 11 11 14 11 13 13 14 15 16 17 17 17 18 19 20 20 19 19 19 18 17 17
5 6 5 5 5 5 4 4 4 5 5 5 7 4 7 7 8 9 9 9 11 12 11 10 9 11 13 13 11 16 11 11 13 14 15 10 14 14 14 14 15 16 16 16 16 16 17 17 17 17 17 17 17 16
5 6 5 5 5 4 5 5 5 5 5 5 6 6 8 8 8 8 8 10 11 12 11 10 10 10 11 13 11 12 14 14 13 13 10 15 14 14 13 14 15 15 15 15 16 16 16 16 17 17 16 16 15 15
5 5 5 5 5 5 5 5 5 5 4 5 5 6 9 8 8 8 9 10 11 11 11 10 10 11 12 11 15 15 14 14 13 9 15 15 14 14 13 12 14 14 13 14 14 15 15 15 15 15 15 15 15 15
5 5 4 4 5 5 5 5 5 4 5 6 7 8 8 8 9 9 10 11 11 11 9 9 12 12 10 12 14 11 12 11 13 14 14 14 14 13 12 12 13 12 12 13 13 14 14 14 14 15 15 15 15 15
5 4 4 4 5 5 5 5 5 5 7 7 6 9 9 10 10 10 11 11 11 12 11 11 11 11 12 13 12 10 13 13 14 14 14 14 13 14 13 13 13 13 14 14 14 14 15 15 15 15 15 15 14 14
4 4 4 4 4 4 5 5 5 5 6 7 8 9 9 10 11 12 12 12 11 11 11 11 11 10 10 11 12 14 14 14 14 14 14 14 14 14 14 14 14 15 15 15 15 15 15 15 14 14 13 13 13 13
4 4 4 3 3 4 4 5 6 6 6 8 8 9 10 11 11 12 12 13 12 12 11 10 10 13 14 15 15 15 15 14 14 14 14 15 15 14 14 15 15 15 16 15 15 15 14 14 13 13 12 12 11 11
3 3 3 3 3 3 4 5 6 7 8 8 9 9 10 11 11 12 12 12 11 12 11 13 14 15 15 15 15 15 15 14 14 15 15 15 15 15 15 15 15 15 15 15 15 14 13 13 12 12 11 11 10 10
3 3 3 3 3 3 4 5 6 7 7 8 9 9 10 10 11 12 12 11 12 14 14 15 15 16 16 16 15 15 15 16 15 15 15 15 14 14 14 15 15 16 15 14 14 14 13 12 11 10 10 10 9 8
3 3 4 4 4 4 5 5 6 7 6 8 9 8 9 10 11 11 11 12 14 15 15 15 15 15 16 16 15 15 15 15 15 15 15 15 15 14 14 15 15 15 15 14 14 13 12 11 10 10 9 8 7 7
3 3 4 5 5 4 6 6 7 7 8 7 7 9 10 11 11 10 10 12 13 14 14 14 15 15 16 16 15 15 15 15 15 15 15 15 15 15 15 15 15 15 14 13 13 12 11 10 10 8 7 8 8 8
3 4 4 3 5 4 4 5 6 6 7 7 8 9 9 11 9 9 10 11 12 13 13 14 14 15 15 15 15 15 15 14 15 14 15 15 15 15 15 15 15 14 13 12 12 11 11 10 8 7 7 7 8 7
3 4 3 3 4 3 4 6 6 6 6 8 8 11 11 9 11 11 9 10 12 12 13 13 13 13 14 14 14 15 15 15 14 15 15 15 15 15 15 15 15 13 12 12 11 11 10 10 8 7 7 7 7 7
2 3 4 4 5 5 6 7 7 7 8 9 9 10 9 12 11 9 11 12 12 12 12 12 13 13 13 13 14 14 14 14 14 15 15 15 15 15 15 14 14 13 12 12 11 11 11 10 9 8 8 7 7 7
4 4 2 5 5 6 6 6 6 7 8 10 10 11 11 10 10 10 11 12 12 12 12 12 12 12 13 13 13 13 13 14 14 14 14 15 15 15 15 14 13 13 12 11 11 11 10 10 9 9 8 8 8 8
3 4 4 4 5 6 7 7 8 10 10 11 9 10 11 11 10 12 12 12 12 12 12 12 12 13 13 13 13 13 14 14 15 15 15 15 15 15 15 14 13 12 11 11 11 10 10 9 9 9 9 9 8 8
3 4 4 4 4 5 9 9 10 10 11 11 11 11 11 12 12 12 13 13 13 12 12 12 12 12 13 13 13 14 14 15 15 16 16 16 16 15 15 14 13 12 11 11 11 11 10 9 9 9 9 9 9 9
4 4 5 6 6 9 9 9 10 10 10 11 11 11 11 12 12 13 13 13 13 12 12 12 12 12 13 13 13 14 15 15 15 15 16 16 16 15 14 13 12 12 11 11 11 10 10 10 10 10 9 9 9 9
5 5 5 5 7 9 9 9 10 10 10 10 11 11 11 11 11 12 13 12 12 12 12 11 11 12 12 13 14 15 15 16 16 16 16 16 15 15 14 13 12 12 11 11 10 10 10 10 10 10 10 10 10 10
5 5 6 6 7 8 9 9 9 9 9 9 10 11 11 11 11 12 12 12 12 12 11 12 12 12 13 14 15 15 16 16 16 16 16 16 15 15 14 13 13 12 12 12 11 11 11 10 10 10 11 11 11 11

GFSWCAN_850_temp_339.txt.gz
Temp
8 8 8 8 8 8 8 7 7 7 7 7 7 6 6 5 4 5 7 5 4 5 6 7 9 10 11 11 11 13 15 16 18 20 22 23 23 24 25 23 24 25 25 26 24 27 28 23 25 29 27 26 26 25
8 8 8 8 8 7 7 7 7 7 7 7 7 7 7 6 6 4 5 4 4 4 7 9 10 10 10 11 10 11 14 13 16 19 19 19 22 21 22 25 21 25 25 26 26 27 21 21 21 22 22 22 23 24
8 8 8 8 7 7 7 7 6 6 6 7 7 7 6 6 5 4 3 3 4 4 6 7 13 13 13 14 12 10 13 14 15 15 17 19 21 20 24 24 22 20 19 24 22 23 23 22 22 22 23 23 23 23
7 7 7 7 7 7 7 6 6 6 7 7 7 7 7 6 6 5 4 4 4 4 5 9 13 13 14 14 13 15 15 14 13 14 17 19 22 17 21 21 23 21 19 21 22 23 22 22 22 24 25 25 24 24
7 7 7 7 7 7 7 7 7 7 7 7 6 7 6 6 6 6 7 7 5 4 6 6 12 15 14 15 14 14 14 11 12 15 18 21 18 19 18 20 23 20 22 24 25 21 21 22 23 24 24 25 25 26
7 7 7 7 6 6 6 6 6 7 6 7 7 7 7 6 6 6 7 7 7 4 4 8 11 15 14 15 14 16 13 12 13 13 18 17 17 19 22 22 21 19 19 20 21 21 21 23 24 24 25 24 25 25
6 7 6 6 6 6 6 6 6 7 7 7 7 8 7 7 7 6 7 7 7 5 5 8 11 13 14 15 14 14 12 14 14 15 15 17 18 18 21 23 22 20 20 20 20 21 22 23 24 25 25 25 25 25
6 6 6 6 6 6 6 6 6 6 7 7 8 8 8 7 8 8 8 7 6 6 6 8 11 12 14 14 15 15 16 14 16 17 16 19 17 18 22 19 17 18 19 20 21 21 22 23 24 24 24 24 24 24
6 6 6 6 6 6 6 6 6 6 7 8 8 8 8 8 8 7 8 8 7 6 7 9 11 14 14 14 14 15 16 17 16 18 18 17 18 21 18 15 15 16 17 19 20 21 22 22 23 23 23 24 23 23
6 6 5 5 6 6 6 5 5 6 7 8 8 7 8 8 7 7 7 7 6 6 6 8 10 11 13 13 15 16 14 17 19 17 14 18 19 14 15 15 15 16 18 19 20 21 21 22 22 22 22 22 22 22
6 6 5 5 5 6 5 5 5 5 7 7 7 7 8 8 8 9 8 8 8 9 8 9 10 11 13 13 14 13 17 16 20 17 18 17 19 16 15 15 15 16 17 18 20 21 21 20 21 21 21 20 20 20
5 5 5 5 5 5 6 5 4 5 4 4 4 5 7 8 9 8 9 9 10 12 10 10 11 11 13 13 13 14 16 16 18 14 18 19 16 13 14 15 16 16 17 19 19 20 20 20 20 21 20 19 19 18
5 5 6 5 5 6 5 5 4 4 5 4 4 5 6 8 7 8 10 11 11 11 11 10 11 11 12 12 12 14 17 16 12 17 18 17 12 14 15 16 16 17 17 18 18 19 19 19 18 18 18 18 17 17
5 5 6 6 6 6 5 5 5 5 5 4 6 5 8 8 7 8 7 8 9 10 10 9 9 11 11 13 13 17 13 14 16 17 18 15 13 14 15 15 15 15 15 16 16 16 17 17 16 17 17 17 17 16
5 6 6 6 6 5 5 5 5 5 5 4 6 6 9 9 8 8 7 7 9 9 10 9 9 9 12 13 14 15 16 16 17 17 15 13 14 14 14 14 14 14 14 15 15 15 16 16 16 16 16 16 15 15
5 5 6 5 5 5 5 5 5 5 4 4 4 6 8 8 9 9 8 8 9 10 10 9 10 12 14 13 16 17 17 17 17 14 14 14 14 14 13 13 13 12 13 14 14 14 15 15 15 15 15 15 15 15
5 5 5 4 5 5 5 5 4 4 5 5 6 6 6 7 8 9 9 10 10 10 11 11 13 12 12 15 16 15 17 14 14 13 14 14 14 14 13 13 13 13 13 13 14 14 15 15 15 15 15 15 15 15
5 4 4 4 4 5 5 5 5 5 6 7 7 8 8 8 9 10 10 10 10 10 10 12 10 13 14 16 15 14 12 13 14 14 14 14 14 13 13 13 14 14 14 14 14 14 15 15 15 15 14 15 14 14
5 5 4 4 4 4 4 4 5 5 6 6 7 8 8 9 10 11 11 11 11 10 10 10 12 13 14 12 13 13 14 14 14 14 14 14 14 14 14 14 14 14 14 14 15 15 15 15 14 14 13 13 13 12
4 4 4 3 3 3 3 4 5 5 6 7 7 7 8 9 10 11 11 11 11 11 11 12 13 13 13 14 14 14 14 14 14 14 14 14 14 14 14 14 14 15 15 15 15 15 14 14 13 13 12 12 11 11
4 4 3 3 3 3 3 4 5 6 6 6 8 8 9 10 10 11 11 12 11 12 11 13 14 15 15 14 14 14 14 14 15 15 15 14 14 15 15 15 15 15 15 15 15 14 13 13 12 12 11 10 10 10
3 3 3 3 3 3 3 4 5 6 6 7 7 8 8 10 10 10 11 11 11 13 14 14 15 15 15 15 15 15 14 14 15 15 15 15 15 15 14 14 15 15 15 14 14 13 12 11 11 10 10 9 9 8
3 3 3 3 3 3 4 5 4 6 7 9 8 9 10 10 10 10 10 12 13 14 14 14 15 15 15 15 15 15 15 15 15 15 15 15 15 15 15 15 15 15 14 14 13 12 12 11 11 10 9 8 8 8
2 3 4 4 4 4 5 5 5 6 7 8 10 10 11 10 10 10 12 12 12 13 13 14 14 14 15 15 15 15 15 15 15 15 15 15 15 15 15 15 15 15 14 13 12 12 11 11 10 9 8 8 8 8
3 3 3 3 4 4 6 7 7 7 9 9 9 11 11 10 12 11 12 11 11 12 12 13 14 14 14 15 15 15 15 15 15 15 15 15 15 15 15 15 15 14 12 12 12 11 11 10 9 9 8 8 7 7
2 3 2 4 5 5 7 7 8 8 9 9 10 10 10 11 12 12 11 12 12 12 12 12 13 13 14 14 14 14 15 15 15 15 15 15 15 15 15 15 14 13 12 12 11 11 10 9 8 8 8 7 7 7
2 4 3 4 4 4 6 6 7 8 9 10 11 11 11 12 12 10 11 11 11 11 12 12 12 12 13 13 13 14 14 14 14 14 15 15 15 15 15 14 13 13 12 12 11 10 10 9 8 8 8 7 7 8
4 3 4 4 4 5 6 8 9 9 10 10 10 11 12 11 10 9 10 11 11 12 12 12 12 12 12 13 13 13 13 13 14 14 14 15 15 15 14 14 14 13 12 12 11 10 10 9 9 8 8 8 8 8
3 3 3 4 4 5 7 8 9 9 10 10 10 11 11 11 11 11 11 11 11 12 12 12 12 12 12 12 13 13 13 13 14 14 14 14 15 14 14 14 13 12 12 12 11 10 10 9 9 9 9 9 9 9
3 3 4 5 6 7 8 8 9 10 10 10 10 11 11 11 11 12 12 13 13 13 12 12 12 12 12 13 13 13 13 14 14 14 14 15 15 15 14 14 13 12 12 12 11 10 10 10 10 9 9 9 9 9
3 3 4 5 7 8 8 8 9 9 10 10 10 10 10 11 12 12 13 13 13 12 12 12 12 12 12 12 13 13 14 15 15 15 15 15 15 14 14 13 12 12 12 11 11 11 10 10 10 9 9 9 9 9
3 4 5 7 7 8 8 8 9 9 10 10 10 10 11 11 11 12 12 13 12 12 12 12 12 12 12 13 13 13 14 15 15 15 15 15 15 14 14 13 12 12 11 11 11 10 10 10 10 10 10 10 10 10
4 4 5 6 7 8 8 8 9 9 8 8 9 10 10 11 11 12 13 12 12 12 12 12 12 12 12 13 13 14 15 15 15 15 15 15 14 14 13 13 13 12 11 11 11 10 10 10 10 10 10 10 10 10

GFSWCAN_850_temp_342.txt.gz
Temp
9 9 8 9 9 8 8 8 7 7 7 7 7 7 7 5 4 4 4 4 4 5 8 9 10 11 13 14 15 15 15 18 20 21 24 26 27 29 29 30 29 29 28 30 31 30 30 29 30 31 30 30 30 31
9 8 8 8 8 8 8 7 7 7 7 7 7 7 7 6 5 3 3 4 4 4 6 8 8 8 10 11 12 12 14 13 17 20 23 24 27 27 29 28 27 29 31 31 31 31 27 26 27 26 26 27 27 28
8 8 8 8 7 7 7 7 7 7 7 7 7 7 6 6 5 3 3 4 3 3 7 10 11 12 12 11 10 12 10 12 15 17 17 21 22 26 28 29 28 25 25 29 28 27 27 26 26 26 26 27 26 26
8 8 7 7 7 7 7 7 7 7 7 7 6 6 6 6 5 5 3 3 3 3 5 12 12 13 13 13 11 10 11 11 14 15 16 19 24 23 28 27 29 27 25 27 27 27 26 25 25 26 25 25 25 25
7 7 7 7 7 7 7 7 7 7 7 7 6 6 6 6 6 5 6 5 3 4 10 9 11 13 13 12 13 12 10 9 12 15 19 21 24 24 25 27 28 26 27 29 28 25 26 25 24 25 26 25 25 24
7 7 7 7 7 7 7 6 6 7 7 7 6 6 7 7 6 5 6 6 6 3 4 9 13 13 12 11 12 13 10 11 12 15 18 21 21 22 27 27 25 24 23 23 24 23 24 24 25 25 25 25 25 25
7 7 7 7 7 7 7 7 7 7 7 7 7 7 8 7 6 5 8 6 6 4 4 6 13 14 12 11 11 11 11 12 13 16 18 21 23 21 27 26 24 23 22 22 22 23 24 25 25 25 25 24 24 24
7 7 7 7 7 7 6 7 7 7 7 7 7 8 8 7 6 6 7 7 6 5 5 7 14 14 12 14 14 11 11 14 15 16 18 20 22 23 24 22 21 21 21 22 21 22 23 23 23 24 24 24 24 24
8 6 6 7 6 6 6 6 6 7 7 7 8 8 7 6 6 6 7 7 6 5 6 9 12 14 13 15 16 13 11 17 17 19 21 20 23 23 20 20 19 18 19 20 21 22 23 24 23 23 24 24 24 22
7 6 6 6 6 6 6 6 6 7 7 8 7 6 7 7 7 6 6 5 4 5 6 9 13 14 14 16 17 17 15 18 18 21 18 21 22 17 16 16 16 16 17 18 21 23 23 23 23 22 22 21 22 21
7 6 6 6 6 6 6 6 6 6 6 5 6 6 7 8 7 7 8 7 7 8 9 11 13 14 14 15 16 18 20 20 21 21 22 22 23 19 16 16 15 16 17 18 18 18 19 19 21 21 20 20 20 19
7 6 6 6 6 6 6 6 5 5 3 3 4 4 6 7 8 10 8 9 11 13 12 12 13 13 13 11 14 17 20 21 21 20 22 22 19 16 16 15 15 16 17 17 18 18 18 19 19 20 19 19 18 18
5 5 5 6 6 6 6 6 5 5 5 3 4 5 6 10 8 8 6 9 11 10 12 11 13 13 12 11 15 17 20 21 19 21 22 21 16 15 15 15 16 16 17 17 17 17 17 17 18 18 17 17 17 16
5 5 6 6 6 6 6 5 5 5 5 5 7 7 9 11 11 9 8 7 8 10 10 10 11 13 15 15 14 18 18 19 20 21 20 20 16 15 15 15 15 15 16 16 16 16 17 17 16 17 16 16 16 16
5 5 5 6 6 6 5 5 5 5 4 7 7 8 12 12 11 10 7 7 9 10 10 11 11 11 15 16 19 18 18 19 20 20 20 17 15 14 14 14 14 14 14 15 15 16 16 16 16 16 16 16 15 15
4 5 5 6 5 5 5 6 5 4 5 6 7 8 11 12 12 10 9 8 10 10 10 9 12 16 17 18 18 19 20 20 19 19 17 15 14 13 13 13 13 13 13 14 15 15 15 16 16 15 15 15 15 15
4 4 5 5 5 5 5 5 3 4 7 7 9 10 10 11 11 10 8 9 10 11 14 14 15 16 17 18 19 20 19 19 17 16 16 14 14 13 13 13 13 13 13 13 13 14 15 15 15 15 15 14 14 14
4 4 4 4 4 5 5 4 5 6 7 9 10 12 11 11 11 11 10 11 11 12 12 13 12 15 16 17 18 17 17 16 16 15 15 13 13 14 13 13 13 13 14 14 14 14 14 14 14 14 13 13 13 13
4 3 4 4 4 4 3 4 4 8 9 10 10 10 10 10 10 10 11 11 10 10 11 13 14 15 15 15 16 16 16 16 17 14 14 13 13 14 14 14 14 14 14 14 15 15 14 14 14 14 14 14 14 14
4 4 4 3 3 3 3 5 4 5 9 11 9 10 10 11 12 11 12 12 12 11 12 14 15 15 16 15 14 15 15 15 16 16 14 14 14 15 14 14 14 14 14 15 14 14 14 14 13 13 12 12 12 13
3 3 3 3 3 3 4 6 7 8 9 9 10 10 11 11 11 12 13 13 13 14 15 15 15 16 14 14 14 13 14 14 15 15 15 15 14 14 14 14 15 15 15 16 16 14 14 13 12 12 11 11 11 11
2 3 2 3 3 3 2 4 6 7 7 10 10 11 12 12 13 13 12 13 14 13 13 14 14 14 14 14 14 14 13 14 15 15 15 15 14 14 15 14 14 14 15 15 14 14 12 11 11 10 10 9 9 8
3 3 3 3 4 3 4 5 6 9 10 11 11 12 13 13 13 11 13 14 15 14 13 13 14 14 15 15 14 14 14 14 14 14 14 15 14 14 14 15 15 15 13 12 12 11 10 10 8 8 7 7 8 7
3 2 4 5 4 5 7 7 8 9 10 11 13 13 13 13 12 12 15 15 14 13 13 12 13 14 14 15 14 14 14 15 15 14 14 15 15 14 14 14 14 13 13 12 11 10 9 8 8 8 8 8 8 7
3 3 3 3 6 7 8 9 10 11 11 12 12 13 14 12 13 14 15 14 13 13 13 13 13 14 16 16 16 15 15 14 15 15 15 15 15 15 14 13 13 12 12 12 11 10 9 8 8 7 7 7 7 8
2 4 3 7 8 8 9 10 11 11 12 12 13 13 13 13 14 14 13 11 11 12 12 13 13 13 14 14 15 16 15 14 14 15 15 15 15 16 15 14 13 11 11 11 10 10 9 8 7 7 7 7 8 8
3 6 6 5 7 7 9 9 10 11 12 12 14 14 13 13 13 11 10 11 11 11 12 12 12 14 13 14 13 13 13 14 14 15 14 14 15 14 15 15 14 12 11 11 10 10 9 9 8 7 7 7 8 8
5 6 7 7 6 7 9 11 11 12 13 13 13 13 13 13 12 10 10 11 10 10 11 12 12 12 12 13 12 12 13 13 13 13 13 14 14 13 13 13 13 12 11 11 10 10 10 9 8 8 8 8 8 8
5 6 6 7 7 8 9 10 12 12 11 12 13 13 12 12 11 11 11 11 11 11 12 13 13 12 12 12 12 12 12 13 13 14 14 15 14 13 13 14 12 11 11 12 11 10 10 9 9 9 9 9 9 9
6 6 7 7 8 9 10 10 11 11 11 11 11 12 12 12 12 12 12 12 12 12 13 13 13 12 12 12 13 13 13 13 13 15 15 16 15 13 13 12 11 11 11 11 10 10 10 9 9 9 9 10 10 10
6 6 7 8 9 9 10 10 10 10 10 11 11 11 12 12 11 12 12 12 12 12 13 13 13 13 13 13 13 13 14 13 13 13 15 15 14 14 13 12 11 11 11 10 10 10 9 10 10 10 10 10 10 10
6 6 7 9 9 10 9 10 10 11 11 11 11 12 12 12 12 13 12 12 12 12 13 12 12 12 12 12 12 13 14 14 14 14 15 14 14 13 12 12 11 11 11 11 10 10 10 10 11 11 10 10 10 10
5 7 7 8 9 10 10 10 11 11 11 11 11 12 12 12 13 13 12 12 12 12 12 12 11 11 11 12 12 13 14 14 14 15 15 14 14 13 12 12 11 11 11 11 11 11 10 11 11 11 11 10 10 11

GFSWCAN_850_temp_345.txt.gz
Temp
9 9 9 9 9 8 8 8 8 8 8 8 7 7 7 7 6 5 6 7 6 7 9 11 12 13 14 15 15 17 18 20 21 20 23 24 25 27 28 30 30 30 30 31 31 31 30 35 35 34 34 34 33 34
9 9 9 9 9 8 8 8 8 8 8 7 7 7 7 6 6 4 4 7 5 5 8 9 9 9 10 13 14 16 17 17 16 17 16 21 21 27 28 29 32 31 32 31 32 32 31 32 32 31 31 31 31 31
10 9 9 8 8 8 8 8 8 7 7 7 7 7 6 6 5 4 3 4 4 4 8 12 14 15 13 12 12 14 16 16 14 11 13 16 20 25 25 30 31 28 33 34 31 31 31 30 30 30 30 30 30 30
9 9 8 8 8 8 8 8 7 7 7 7 7 6 6 6 5 5 3 4 4 4 8 14 15 15 15 16 14 13 14 12 11 11 11 13 18 18 25 28 27 21 29 31 30 29 29 28 28 29 28 29 29 29
9 9 8 7 8 8 7 7 7 7 7 7 7 6 6 6 6 6 4 4 4 5 9 11 11 15 15 16 15 15 14 12 10 9 11 12 16 22 26 27 25 16 24 31 29 29 28 27 28 28 28 28 27 27
9 9 9 8 7 7 7 7 7 7 7 7 7 6 6 6 6 5 7 6 6 4 4 7 13 14 16 14 15 13 11 9 10 9 11 14 18 21 25 26 26 25 25 28 27 28 27 27 28 28 28 27 27 26
9 9 9 8 7 7 7 7 7 7 7 7 7 7 7 7 6 5 7 6 5 4 4 5 12 13 14 14 12 10 9 9 9 11 13 14 19 22 25 23 26 25 25 26 26 27 27 28 28 27 27 27 27 27
9 9 9 8 7 7 7 7 7 7 8 7 7 8 8 8 6 6 7 6 5 4 4 6 13 13 14 14 13 10 9 9 12 14 17 20 21 25 24 16 21 25 25 24 25 27 27 26 27 27 27 27 26 26
9 8 8 8 7 7 6 7 7 7 8 8 8 8 7 6 6 7 6 6 5 5 5 8 11 10 11 13 14 10 9 11 16 18 18 20 22 21 19 20 20 21 22 23 25 26 26 26 26 26 26 26 26 25
8 8 8 8 7 7 6 7 7 7 7 7 8 7 8 7 7 6 6 5 4 4 5 7 13 11 12 12 16 10 9 14 19 21 21 20 20 19 19 19 19 20 21 23 25 25 25 25 25 25 25 25 25 24
8 8 8 7 6 6 6 6 6 6 6 7 9 10 7 6 6 6 8 6 6 7 7 10 14 13 14 14 13 15 13 19 21 21 21 19 22 20 18 18 19 19 21 21 21 22 22 23 23 23 23 23 22 22
8 8 8 7 6 6 6 6 6 5 5 4 4 5 5 6 8 10 11 8 9 11 11 12 13 13 14 14 14 17 16 21 16 22 21 22 17 18 18 18 18 19 20 20 21 21 22 22 23 23 22 22 21 19
8 8 7 6 5 6 6 6 6 5 6 4 5 5 6 11 10 12 10 9 8 8 10 12 13 14 14 15 15 16 14 19 18 22 22 20 18 18 18 18 18 19 19 19 20 20 20 20 21 21 21 20 19 18
7 7 6 5 6 6 6 6 5 5 5 8 9 8 12 12 15 13 13 11 9 9 11 12 12 13 15 14 12 15 21 23 20 22 20 20 18 17 18 18 18 18 19 19 19 19 19 19 19 19 19 18 18 18
6 5 5 5 6 6 6 5 5 4 6 10 11 10 14 15 15 13 11 9 10 11 12 13 13 13 15 15 14 14 19 16 18 18 15 17 17 17 17 17 17 17 17 18 19 19 18 18 18 18 18 18 17 17
5 4 5 6 6 5 5 5 4 5 7 9 10 13 14 15 15 13 11 11 12 13 14 14 13 15 17 14 17 20 19 19 22 22 19 17 16 16 16 16 15 15 16 17 17 18 18 18 18 17 17 17 17 16
3 3 5 5 5 5 5 5 6 6 9 10 13 13 13 14 15 14 13 12 13 14 14 14 15 16 20 20 19 18 14 21 21 19 18 16 15 15 15 15 15 14 15 15 15 15 16 16 17 17 16 15 16 16
3 2 3 4 5 5 4 5 7 9 10 11 13 14 14 14 14 14 13 12 13 15 15 14 15 16 16 17 16 21 19 19 19 18 17 15 15 15 15 15 15 15 15 14 15 15 14 15 16 16 15 15 15 15
2 2 3 4 4 4 6 7 7 10 11 13 13 13 13 13 13 13 13 13 13 13 14 14 15 15 15 15 16 16 18 19 18 18 16 15 15 15 14 14 14 15 15 15 15 15 15 15 15 16 16 16 16 16
3 3 3 4 3 3 6 8 7 8 11 14 13 13 13 14 14 13 14 14 14 13 13 15 14 13 13 14 15 15 16 17 19 18 17 16 15 14 15 14 14 15 15 16 16 16 16 16 16 16 15 14 14 15
3 2 3 3 3 3 6 9 9 10 12 12 14 14 14 14 14 14 14 14 15 15 17 17 16 16 15 15 15 15 16 16 16 17 16 15 15 16 15 15 14 15 16 16 16 15 15 16 16 15 14 14 14 12
3 2 3 3 3 4 4 7 9 10 10 12 13 13 14 15 15 15 15 15 16 16 16 16 16 16 16 15 16 15 15 15 15 15 15 15 16 16 15 15 15 15 15 16 16 16 15 14 12 13 13 11 10 9
2 3 4 4 5 5 5 8 9 11 12 14 14 15 16 15 15 15 15 16 16 17 16 15 15 14 14 14 14 14 14 15 15 15 15 16 16 16 15 15 15 15 15 15 15 14 13 11 10 9 8 8 8 8
2 3 5 6 6 6 9 10 10 11 13 14 15 15 16 16 15 15 17 17 16 16 16 15 15 15 15 15 15 15 15 16 15 15 15 16 16 16 16 16 16 16 15 15 14 13 11 9 9 8 7 7 7 8
3 4 5 3 8 9 11 12 12 13 13 14 15 16 16 15 15 15 15 13 16 15 14 14 14 15 16 17 17 16 15 15 16 16 16 16 16 17 16 16 15 15 15 14 13 12 11 9 8 9 8 8 8 8
3 6 4 9 10 10 12 12 13 14 15 15 15 16 16 16 15 15 14 13 13 13 13 14 15 15 16 17 17 16 16 16 17 17 16 16 17 15 14 16 15 14 14 13 13 12 10 9 9 9 8 8 8 8
4 8 8 8 10 11 11 12 13 14 14 15 16 16 15 14 15 13 11 11 11 12 13 14 15 15 16 16 16 16 16 16 16 16 16 16 16 17 16 16 16 14 14 13 12 12 11 10 10 9 9 9 8 9
7 8 10 10 9 10 12 13 14 14 15 16 16 15 15 14 13 11 11 11 12 12 14 14 15 15 16 16 15 15 15 16 16 16 16 16 16 16 16 15 14 13 13 13 12 12 11 11 10 10 10 10 9 10
7 8 9 10 10 11 11 12 14 15 15 14 14 14 13 13 13 13 12 12 12 14 14 14 14 14 14 15 15 15 15 16 16 16 16 17 16 16 14 13 13 13 12 12 12 12 12 11 11 11 11 11 11 11
8 9 10 10 11 12 12 12 13 14 14 14 13 13 14 14 14 12 12 13 13 14 15 15 15 15 14 14 15 15 15 15 16 16 17 16 16 15 14 14 14 13 12 12 11 11 11 11 11 11 12 12 12 12
9 10 10 10 11 11 12 13 13 13 13 13 13 14 14 14 14 13 13 13 14 14 15 15 16 16 15 15 14 15 16 16 16 16 15 15 16 15 15 14 14 13 13 12 12 11 11 12 12 12 12 12 12 12
9 9 10 11 11 12 12 12 13 13 13 13 13 13 13 14 14 14 14 14 14 15 15 15 15 15 15 15 15 15 15 16 16 16 16 17 16 15 14 14 14 14 13 13 12 12 12 13 13 13 13 12 12 12
8 10 10 11 12 12 12 12 13 13 13 13 13 13 14 14 15 15 14 14 15 15 15 15 14 14 14 15 15 15 15 16 15 15 15 16 15 15 15 14 14 13 13 13 13 13 12 13 13 13 13 13 13 12

GFSWCAN_850_temp_348.txt.gz
Temp
10 10 10 9 9 9 9 9 8 8 8 8 8 8 8 8 7 7 8 7 8 9 10 11 12 13 14 16 17 18 18 19 21 21 22 22 24 24 25 26 26 26 27 29 29 29 30 35 36 34 34 34 37 36
10 10 10 10 9 9 8 8 8 8 8 8 8 8 7 7 7 6 4 7 7 6 9 10 11 10 11 12 13 15 17 18 18 16 16 16 17 19 21 23 27 27 30 30 31 31 33 34 34 33 34 33 33 33
10 10 10 10 9 9 8 8 8 7 8 7 7 7 6 6 6 5 4 4 5 6 8 11 13 15 15 13 13 13 14 16 16 14 12 14 14 16 15 21 19 28 31 31 31 33 29 32 32 32 32 32 32 32
9 9 9 9 9 9 8 8 8 8 8 7 7 7 6 6 6 5 5 5 6 5 6 12 15 15 15 16 16 14 14 16 16 14 14 14 15 16 15 15 17 20 22 29 30 31 31 31 30 31 31 31 31 31
9 9 9 9 9 9 8 8 8 8 7 8 7 7 6 6 6 6 8 6 5 6 9 10 9 15 16 16 16 15 15 16 16 15 15 16 17 17 18 15 19 21 22 26 28 19 18 29 30 30 30 29 29 29
9 9 9 9 9 9 8 7 8 8 8 8 7 7 7 6 6 4 7 7 6 5 4 8 12 13 14 16 13 15 17 16 15 14 15 15 16 14 14 15 17 17 16 17 15 17 17 28 29 28 28 28 28 27
9 9 9 9 9 9 8 7 8 8 8 8 8 7 8 7 7 5 8 6 6 5 5 7 12 14 14 15 14 14 13 12 12 13 13 14 15 14 13 14 15 15 17 19 16 17 17 28 29 28 28 27 27 26
9 9 9 9 8 8 8 7 7 8 8 8 8 8 8 7 7 7 7 6 6 5 5 6 9 13 11 11 13 11 11 10 10 11 11 14 16 12 14 12 12 14 18 20 19 21 25 28 28 28 28 28 27 27
8 9 9 9 8 8 8 7 7 8 8 9 9 8 7 7 6 7 7 6 6 5 5 7 9 11 10 10 10 9 10 10 10 12 13 17 21 17 12 12 13 14 20 25 27 25 27 27 28 28 27 27 27 26
8 8 8 8 8 8 8 7 7 7 8 9 9 8 8 8 7 7 6 5 4 5 4 6 10 12 10 10 10 9 9 9 13 18 20 20 19 15 14 15 19 21 23 24 24 25 26 26 27 27 26 26 26 25
7 8 8 8 8 8 7 7 7 7 8 8 10 11 8 7 8 8 8 6 5 6 6 7 11 11 11 10 11 9 10 12 17 22 21 21 17 18 19 20 20 22 22 23 23 23 24 24 25 25 25 24 24 23
8 8 8 8 8 7 6 6 6 6 5 6 6 6 6 8 9 8 11 11 10 10 9 11 12 12 12 12 12 12 13 14 18 23 23 21 17 19 19 20 20 21 21 22 22 23 23 24 24 23 23 23 22 21
8 8 8 7 8 7 6 6 6 6 7 5 5 5 7 10 9 12 13 13 12 10 10 12 13 14 13 14 13 12 12 17 19 22 20 18 17 19 19 20 20 20 21 21 21 22 22 22 23 23 22 21 20 19
7 7 7 7 7 5 6 6 6 6 6 8 11 7 12 14 15 15 15 14 14 12 13 13 14 13 13 14 13 13 12 14 19 18 17 15 17 18 19 19 19 20 20 20 20 21 21 21 21 20 20 20 19 19
7 7 7 7 6 6 6 6 5 5 5 10 13 9 14 16 17 16 16 15 14 13 13 14 14 13 14 12 15 14 16 15 16 13 14 16 17 17 18 18 18 18 18 19 19 20 20 20 19 19 19 19 18 18
6 5 6 5 5 5 5 5 5 4 8 10 12 14 16 17 17 16 15 15 14 14 13 14 14 14 15 15 13 15 19 15 12 15 16 16 16 17 16 16 16 16 17 16 17 18 19 19 19 18 18 18 17 17
5 4 5 5 5 5 5 5 6 7 9 11 14 14 15 16 16 16 15 15 14 14 13 14 14 16 12 11 15 15 12 11 13 17 16 16 16 16 16 15 15 16 16 15 16 16 16 16 16 17 16 16 17 17
4 3 4 4 4 4 4 5 7 10 10 11 13 14 15 16 16 17 16 14 14 15 14 14 13 15 17 16 11 9 12 13 18 17 16 15 16 16 16 16 16 15 15 16 15 15 15 14 13 16 16 16 16 16
3 3 3 3 4 4 7 7 8 10 12 13 14 15 15 15 15 15 15 14 14 14 15 14 14 16 16 17 16 15 15 15 17 17 15 15 15 15 15 15 16 16 16 16 16 16 16 16 16 16 16 16 16 16
2 2 3 4 3 4 7 9 9 10 12 14 15 15 15 15 16 16 15 15 14 14 15 14 15 13 13 16 17 16 15 14 15 17 16 16 15 15 15 15 16 16 16 16 16 16 16 16 16 16 16 15 15 14
2 3 3 3 3 3 6 10 11 12 12 13 14 15 16 16 16 16 15 15 14 15 16 16 15 15 16 15 16 16 16 16 17 17 16 16 17 15 14 15 15 16 16 16 16 16 16 15 15 15 15 13 13 13
3 3 3 3 3 4 5 8 10 11 12 13 14 15 16 16 16 16 16 15 16 16 16 17 16 16 17 15 15 15 15 16 16 16 16 16 17 15 15 16 15 16 15 15 15 16 14 13 14 13 12 11 10 10
2 3 4 4 5 5 6 9 10 11 13 14 15 16 16 16 16 16 16 16 16 16 17 17 16 15 15 15 15 15 15 16 16 16 16 16 16 16 16 16 16 16 16 16 15 15 13 11 10 10 9 8 8 8
3 3 5 7 7 7 10 11 11 12 14 14 15 15 16 16 16 15 16 16 17 17 17 16 15 15 16 15 16 16 15 15 16 16 15 16 16 16 16 16 16 17 16 16 15 13 11 10 10 9 9 8 8 8
3 4 5 4 8 10 11 13 12 14 14 15 16 16 16 15 15 14 15 16 16 16 16 16 16 16 17 16 17 16 16 16 16 16 15 14 15 14 15 16 16 16 16 15 14 12 10 10 10 9 10 9 9 8
4 6 5 10 11 12 13 14 14 15 15 16 17 17 15 16 15 14 14 14 14 13 16 16 16 15 15 16 16 14 16 17 17 16 16 16 14 16 15 15 15 16 15 15 13 12 10 11 10 10 9 10 10 10
5 9 9 9 11 13 13 14 15 16 16 16 17 17 17 15 15 13 13 14 14 14 14 15 16 15 15 16 15 16 16 16 17 16 17 17 17 15 16 15 16 15 15 14 13 11 11 11 11 10 9 9 10 11
7 9 11 11 11 12 13 14 15 15 16 16 17 15 15 13 12 12 12 13 12 13 14 14 14 14 16 16 17 16 17 16 17 17 17 16 16 15 16 15 16 14 14 14 14 13 12 12 11 11 11 11 11 12
8 10 10 11 12 13 12 14 14 16 17 17 16 13 12 13 13 13 12 13 13 13 14 14 15 15 16 16 16 16 16 17 17 17 17 16 16 16 15 14 14 14 13 13 13 13 12 12 12 12 12 12 12 12
9 10 11 12 13 13 13 14 14 15 16 16 15 14 13 13 14 14 13 13 13 14 14 15 15 15 16 16 16 16 16 16 16 16 16 17 16 16 15 15 14 14 13 13 12 12 12 12 12 13 13 13 13 13
10 11 11 12 13 13 13 14 14 14 15 15 15 15 15 14 14 15 14 14 14 14 15 15 16 15 15 15 16 16 16 16 16 15 16 16 15 16 16 15 15 14 14 14 13 12 12 13 14 14 13 13 13 13
11 12 13 13 13 13 13 14 14 14 15 15 15 15 15 15 15 15 15 15 15 15 15 15 15 15 15 16 16 15 15 15 15 16 15 15 16 16 16 15 15 15 14 14 13 13 13 14 14 14 14 14 13 13
11 12 12 13 14 14 14 14 14 14 14 15 15 15 15 15 15 15 15 15 15 16 16 16 16 16 15 15 15 15 15 15 16 16 16 16 16 16 16 16 15 15 14 14 14 14 14 15 15 14 14 14 13 12